Flag for U.S.A. Weather past 2 weeks in Boise, Idaho, U.S.A.

Now
49 °F

Clear.


Feels Like: 45 °F
Forecast: 44 / 76 °F
Wind: 9 mph from Southeast

Location: Boise Air Terminal

Current Time: Mar 30, 2015 at 1:12:39 AM

Latest Report: Mar 29, 2015 at 11:53 PM


Visibility: 10 mi

Pressure: 30.16 "Hg

Humidity: 50%

Dew point: 31 °F

Location of BoiseLocation

Historic Weather in Boise — Graph

°F

Boise temperature yesterday

Maximum temperature yesterday: 66 °F (at 4:53 PM)
Minimum temperature yesterday: 38 °F (at 7:53 AM)
Average temperature yesterday: 52 °F

Past Weeks' High & Low Weather Summary

 TemperatureHumidityPressure
High77 °F (Mar 27, 5:53 PM)92% (Mar 15, 4:53 AM)30.43 "Hg (Mar 15, 4:53 AM)
Low33 °F (Mar 25, 3:53 AM)18% (Mar 20, 2:53 PM)29.82 "Hg (Mar 22, 11:53 PM)
Average52 °F55%30.12 "Hg
* Reported Mar 14 11:53 PM — Mar 29 11:53 PM, Boise, Weather by CustomWeather, © 2015

Note: Actual official high and low records may vary slightly from our data, if they occured in-between our weather recording intervals... More about our weather records

Advertising

Boise weather history for previous 24 hours

 ConditionsComfort  
Time TempWeatherWind HumidityBarometerVisibility
11:53 PM
Sun, Mar 29
49 °FClear.9 mph50%30.16 "Hg10 mi
10:53 PM52 °FClear.5 mph41%30.15 "Hg10 mi
9:53 PM54 °FSunny.No wind37%30.15 "Hg10 mi
8:53 PM60 °FSunny.3 mph27%30.14 "Hg10 mi
7:53 PM62 °FSunny.6 mph25%30.15 "Hg10 mi
6:53 PM66 °FSunny.7 mph20%30.15 "Hg10 mi
5:53 PM66 °FSunny.7 mph23%30.16 "Hg10 mi
4:53 PM66 °FSunny.6 mph21%30.18 "Hg10 mi
3:53 PM65 °FSunny.6 mph25%30.21 "Hg10 mi
2:53 PM64 °FSunny.No wind27%30.23 "Hg10 mi
1:53 PM61 °FSunny.No wind31%30.25 "Hg10 mi
12:53 PM58 °FSunny.No wind36%30.29 "Hg10 mi
11:53 AM55 °FSunny.No wind40%30.33 "Hg10 mi
10:53 AM53 °FSunny.7 mph43%30.33 "Hg10 mi
9:53 AM47 °FSunny.No wind52%30.32 "Hg10 mi
8:53 AM42 °FClear.No wind57%30.33 "Hg10 mi
7:53 AM38 °FClear.5 mph68%30.32 "Hg10 mi
6:53 AM39 °FClear.7 mph65%30.30 "Hg10 mi
5:53 AM39 °FClear.8 mph65%30.30 "Hg10 mi
4:53 AM41 °FClear.6 mph60%30.30 "Hg10 mi
3:53 AM41 °FClear.8 mph62%30.30 "Hg10 mi
2:53 AM42 °FClear.9 mph60%30.32 "Hg10 mi
1:53 AM42 °FClear.9 mph57%30.32 "Hg10 mi
Weather by CustomWeather, © 2015

See weather overviewHow to use our weather pages